Location: Plum
(40.5000°N, 79.7500°W)
Time: 16:47:27
(UTC-05:00)

MOZ.5/SAFIR/RUBIN 5/SL-8 - Visible Passes

Search period start: 03 December 2016 00:00
Search period end: 13 December 2016 00:00
Orbit: 678 x 707 km, 97.9° (Epoch: 02 December)

Date Brightness Start Highest point End Pass type
(mag) Time Alt. Az. Time Alt. Az. Time Alt. Az.
04 Dec 6.0 17:32:27 10° NNW 17:36:10 24° WNW 17:39:53 10° WSW visible
07 Dec 6.4 17:54:55 10° NNW 17:57:34 15° WNW 18:00:13 10° W visible
09 Dec 6.1 17:36:03 10° NNW 17:39:38 22° WNW 17:43:14 10° WSW visible
11 Dec 5.5 17:17:30 10° N 17:21:40 32° WNW 17:25:51 10° SW visible
12 Dec 6.5 17:58:38 10° NNW 18:01:01 14° WNW 18:03:24 10° W visible
